Time,TemperatureF,DewpointF,PressureIn,WindDirection,WindDirectionDegrees,WindSpeedMPH,WindSpeedGustMPH,Humidity,HourlyPrecipIn,Conditions,Clouds,dailyrainin,SoftwareType,DateUTC
2013-07-02 00:22:00,81.0,56.0,29.85,SE,139,0.0,0.0,42,0.00,,,0.00,,2013-07-02 07:22:00,
2013-07-02 02:23:00,79.0,59.0,29.83,SE,142,0.0,0.0,50,0.00,,,0.00,,2013-07-02 09:23:00,
2013-07-02 02:52:00,79.0,59.0,29.83,SE,142,0.0,0.0,50,0.00,,,0.00,,2013-07-02 09:52:00,
2013-07-02 04:22:00,74.0,62.0,29.83,SE,143,0.0,0.0,67,0.00,,,0.00,,2013-07-02 11:22:00,
2013-07-02 04:33:00,74.0,62.0,29.83,SE,143,0.0,0.0,67,0.00,,,0.00,,2013-07-02 11:33:00,
2013-07-02 04:42:00,74.0,62.0,29.83,SE,143,0.0,0.0,67,0.00,,,0.00,,2013-07-02 11:42:00,
2013-07-02 06:22:00,71.0,63.0,29.84,SE,142,0.0,0.0,75,0.00,,,0.00,,2013-07-02 13:22:00,
2013-07-02 06:43:00,71.0,63.0,29.84,SE,142,0.0,0.0,75,0.00,,,0.00,,2013-07-02 13:43:00,
2013-07-02 06:52:00,71.0,63.0,29.84,SE,142,0.0,0.0,75,0.00,,,0.00,,2013-07-02 13:52:00,
2013-07-02 07:01:00,71.0,63.0,29.84,SE,142,0.0,0.0,75,0.00,,,0.00,,2013-07-02 14:01:00,
2013-07-02 08:22:00,71.0,63.0,29.88,SE,141,0.0,0.0,77,0.00,,,0.00,,2013-07-02 15:22:00,
2013-07-02 08:44:00,71.0,63.0,29.88,SE,141,0.0,0.0,77,0.00,,,0.00,,2013-07-02 15:44:00,
2013-07-02 08:53:00,71.0,63.0,29.88,SE,141,0.0,0.0,77,0.00,,,0.00,,2013-07-02 15:53:00,
2013-07-02 09:01:00,71.0,63.0,29.88,SE,141,0.0,0.0,77,0.00,,,0.00,,2013-07-02 16:01:00,
2013-07-02 10:43:00,76.0,65.0,29.90,SE,141,0.0,0.0,68,0.00,,,0.00,,2013-07-02 17:43:00,
2013-07-02 10:53:00,76.0,65.0,29.90,SE,141,0.0,0.0,68,0.00,,,0.00,,2013-07-02 17:53:00,
2013-07-02 11:01:00,76.0,65.0,29.90,SE,141,0.0,0.0,68,0.00,,,0.00,,2013-07-02 18:01:00,
2013-07-02 12:34:00,85.0,68.0,29.89,SE,143,0.0,0.0,56,0.00,,,0.00,,2013-07-02 19:34:00,
2013-07-02 12:43:00,85.0,68.0,29.89,SE,143,0.0,0.0,56,0.00,,,0.00,,2013-07-02 19:43:00,
2013-07-02 12:53:00,85.0,68.0,29.89,SE,143,0.0,0.0,56,0.00,,,0.00,,2013-07-02 19:53:00,
2013-07-02 13:01:00,85.0,68.0,29.89,SE,143,0.0,0.0,56,0.00,,,0.00,,2013-07-02 20:01:00,
2013-07-02 14:52:00,93.0,68.0,29.88,SE,143,0.0,0.0,44,0.00,,,0.00,,2013-07-02 21:52:00,
2013-07-02 16:22:00,85.0,62.0,29.89,SE,143,0.0,0.0,46,0.00,,,0.00,,2013-07-02 23:22:00,
2013-07-02 16:33:00,85.0,62.0,29.89,SE,143,0.0,0.0,46,0.00,,,0.00,,2013-07-02 23:33:00,
2013-07-02 16:44:00,85.0,62.0,29.89,SE,143,0.0,0.0,46,0.00,,,0.00,,2013-07-02 23:44:00,
2013-07-02 16:52:00,85.0,62.0,29.89,SE,143,0.0,0.0,46,0.00,,,0.00,,2013-07-02 23:52:00,
2013-07-02 17:01:00,85.0,62.0,29.89,SE,143,0.0,0.0,46,0.00,,,0.00,,2013-07-03 00:01:00,
2013-07-02 18:33:00,72.0,58.0,29.89,SE,142,0.0,0.0,62,0.00,,,0.00,,2013-07-03 01:33:00,
2013-07-02 18:42:00,72.0,58.0,29.89,SE,142,0.0,0.0,62,0.00,,,0.00,,2013-07-03 01:42:00,
2013-07-02 20:26:00,69.0,59.0,29.90,SE,143,0.0,0.0,70,0.00,,,0.00,,2013-07-03 03:26:00,
2013-07-02 22:23:00,64.0,58.0,29.91,SE,143,0.0,0.0,80,0.00,,,0.00,,2013-07-03 05:23:00,
2013-07-02 22:39:00,64.0,58.0,29.91,SE,143,0.0,0.0,80,0.00,,,0.00,,2013-07-03 05:39:00,
2013-07-02 22:48:00,64.0,58.0,29.91,SE,143,0.0,0.0,80,0.00,,,0.00,,2013-07-03 05:48:00,
2013-07-02 22:57:00,64.0,58.0,29.91,SE,143,0.0,0.0,80,0.00,,,0.00,,2013-07-03 05:57:00,